Portada
METAR-TAF:

METAR-TAF

Aeroports :

Winter Haven's Gilbert Airport

Winter Haven, Florida, Estats Units d'Amèrica

latitud: 28-03-38N, longitud: 081-45-27W, altitud: 44 m

Observació

L'informe es va fer fa 47 minuts, a les 20:53 UTC
Vent 11 kt del Oest/Nord-Oest amb ràfegues de 18 kt
Temperatura 18°C
Humitat 32%
Pressió 1023 hPa
Visibilitat: 16.1 km
Cel clar

METAR: KGIF 282053Z AUTO 29011G18KT 10SM CLR 18/01 A3021 RMK AO2 SLP228 T01780011 56019

Hora: 16:40 (21:40 UTC)


TAF: manca

Observacions i pronòstics meteorològics de més de 4000 aeroports (METAR i TAF).

Les estacions disponibles són els punts grocs i vermells al mapa.

Posi el ratolí al punt desitjat per veure el nom de l'estació.

Feu clic per veure les observacions i els pronòstics meteorològics.

Per canviar el mapa: feu clic els botons verds amb una creu de color negre per apropar; al botó verd amb un guió per allunyar la imatge; o en les fletxes verdes per a mapes adjacents.


METAR-TAF: